Home   Weather   Moga   Past weeks

Flag for India Past Weather in Moga, Punjab, India — Yesterday and Last 2 Weeks

Now
79 °F

Haze.


Feels Like: 80 °F
Forecast: 75 / 98 °F
Wind: 2 mph from North

Location: Amritsar Airport

Current Time: Apr 24, 2017 at 10:53:03 pm

Latest Report: Apr 24, 2017 at 10:00 pm


Visibility: 3 mi

Pressure: 29.77 "Hg

Humidity: 51%

Dew Point: 59 °F

Location of MogaLocation

Past Weather in Moga — Graph

°F

Moga Temperature Yesterday

Maximum temperature yesterday: 93 °F (at 2:30 pm)
Minimum temperature yesterday: 68 °F (at 5:30 am)
Average temperature yesterday: 78 °F

High & Low Weather Summary for the Past Weeks

 TemperatureHumidityPressure
High109 °F (Apr 18, 4:30 pm)100% (Apr 22, 4:30 am)29.92 "Hg (Apr 22, 4:30 am)
Low55 °F (Apr 10, 6:30 am)8% (Apr 19, 1:00 pm)29.45 "Hg (Apr 20, 5:00 pm)
Average84 °F39%29.69 "Hg
* Reported Apr 9 9:30 pm — Apr 24 9:30 pm, Moga, Weather by CustomWeather, © 2017

Note: Actual official high and low records may vary slightly from our data, if they occured in-between our weather recording intervals... More about our weather records

Advertising

Moga Weather History for the Previous 24 Hours

Scroll right to see more
 ConditionsComfort  
Time TempWeatherWind HumidityBarometerVisibility
9:30 pm
Mon, Apr 24
79 °FHaze.No wind48%29.77 "Hg3 mi
8:30 pm81 °FClear.No wind45%29.74 "Hg4 mi
8:00 pm86 °FClear.2 mph33%29.74 "Hg4 mi
7:30 pm82 °FClear.No wind42%29.71 "Hg4 mi
7:00 pm88 °FClear.3 mph33%29.71 "Hg4 mi
6:30 pm90 °FClear.7 mph31%29.71 "Hg4 mi
6:00 pm91 °FClear.8 mph26%29.71 "Hg4 mi
5:00 pm91 °FClear.10 mph28%29.71 "Hg4 mi
4:30 pm91 °FClear.10 mph28%29.71 "Hg4 mi
4:00 pm93 °FClear.5 mph26%29.71 "Hg4 mi
3:30 pm91 °FClear.7 mph28%29.71 "Hg4 mi
3:00 pm91 °FClear.2 mph28%29.74 "Hg4 mi
2:30 pm91 °FClear.7 mph28%29.74 "Hg4 mi
2:00 pm91 °FClear.6 mph30%29.74 "Hg4 mi
1:30 pm90 °FClear.3 mph31%29.77 "Hg4 mi
1:00 pm90 °FClear.6 mph31%29.77 "Hg4 mi
12:30 pm88 °FClear.5 mph33%29.77 "Hg4 mi
12:00 pm88 °FClear.3 mph35%29.80 "Hg4 mi
11:30 am86 °FClear.2 mph35%29.80 "Hg4 mi
10:30 am82 °FClear.5 mph51%29.80 "Hg4 mi
10:00 am79 °FClear.6 mph58%29.80 "Hg4 mi
9:00 am75 °FClear.2 mph65%29.77 "Hg4 mi
8:00 am73 °FFog.6 mph74%29.77 "Hg2 mi
7:30 am70 °FFog.3 mph83%29.74 "Hg2 mi
7:00 am68 °FFog.5 mph100%29.74 "Hg2 mi
6:30 am64 °FFog.No wind100%29.71 "Hg2 mi
6:00 am66 °FFog.No wind100%29.71 "Hg2 mi
5:30 am66 °FFog.No wind100%29.71 "Hg2 mi
5:00 am66 °FFog.2 mph100%29.71 "Hg2 mi
4:30 am66 °FFog.No wind100%29.71 "Hg2 mi
4:00 am66 °FFog.No wind100%29.71 "Hg2 mi
12:30 am70 °FThunderstorms. Partly cloudy.No wind73%29.71 "Hg2 mi
11:00 pm
Sun, Apr 23
72 °FThunderstorms. Partly cloudy.3 mph65%29.74 "Hg2 mi
10:30 pm70 °FThunderstorms. Partly cloudy.10 mph73%29.77 "Hg2 mi
10:00 pm72 °FThunderstorms. Partly cloudy.12 mph69%29.77 "Hg2 mi
Weather by CustomWeather, © 2017

See weather overviewHow to use our weather pages